Location: Flotzheim
(48.8375°N, 10.8136°E)
Time: 17:29:51
(UTC+00:00)

Cosmos 1602 Rocket - Pass Details

Date: 23 January 2021
Orbit: 604 x 632 km, 82.5° (Epoch: 28 February)

Event Time Altitude Azimuth Distance (km) Brightness Sun altitude
Rises 17:39:49 0° 176° (S) 2,854 7.1 -16.2°
Reaches altitude 10° 17:42:03 10° 172° (S) 1,958 6.2 -16.5°
Maximum altitude 17:46:17 56° 95° (E) 734 3.6 -17.2°
Enters shadow 17:50:06 13° 19° (NNE) 1,801 5.7 -17.8°
